STARLINK-1471, 45735

Orbit data source: Space-Track

STARLINK-1471, 45735 is a payload satellite owned by SpaceX/Seattle (US) in LEO that was launched on Sat, 13 Jun 2020 UTC via an FALCON 9 launch vehicle from the Air Force Eastern Test Range (AFETR). Payload-class satellites include a variety of spacecraft equipped with specific instruments for various scientific and technological missions. These include communications satellites like Starlink; space stations such as the ISS; scientific satellites like the Hubble; Earth observation satellites from companies like Planet Labs, Umbra, and HawkEye 360; GPS; miniature CubeSats for education and research; and military/defense satellites.

Loading next visibility...
Identifier
45735, 2020-038F
Orbit
LEO
Last TLE update
22 hours ago
Origin
Manufacturer
SpaceX/Seattle
Mission
Partially operational Commercial Communications
Bus & Motor
STARLINK, Unknown motor
Mass
260 kg wet, ~248 kg dry
Launch date (UTC)
2020-06-13 (5 years ago)
Launch vehicle
FALCON 9
Launch site
Air Force Eastern Test Range (AFETR)
Object type
Payload
Rocket body
Debris
Shape & HBR
Box + 1 Pan, 8.86 m
Radar Cross Section
13.562 m², Large (>1 m²)

Expand to show TLE details & history

TLE from 22 hours ago
0 STARLINK-1471
1 45735U 20038F   25128.42859124  .00011338  00000-0  35127-3 0  9997
2 45735  53.0526 144.8388 0001604  17.9109 342.1949 15.33933180270491
Epoch: 2025-05-08T10:17Z
Definitive object data (Epoch: 2025-05-08T10:17:10.283Z)
Latitude
0.00006°
Longitude
124.04677°
Altitude
463.936 km
Speed
7.636 km/s
True Right ascension
09h 39m 21s
True Declination
0° 00' 00"
Sunlit
Object was in daylight at TLE epoch
Visualization TLE readout
Latitude
43.08057°
Longitude
-104.71183°
Altitude
468.475 km
Speed
7.637 km/s
Apparent Right ascension
23h 25m 36s
Apparent Declination
16° 17' 49"
Sunlit
Object is in daylight
Visualization observer readout
Local Sidereal Time
16:51:31
Azimuth
72.106° E
Elevation
4.07°
Doppler factor
1
Orbital elements
Apogee altitude
465.463 km
Perigee altitude
463.268 km
Semi-major axis
6,842.502 km
Eccentricity
0.0001604
Inclination
53.0526°
RAAN
144.8388°
Arg. of periapsis
17.9109°
True anomaly
342.18928°
Mean anomaly
342.1949°
Eccentric anomaly
342.19209°
Mean motion
3.83461 °/min
BSTAR
0.00035127
Orbital period
93.88 mins
Loading maneuver chart data...
Loading SW <> Apogee altitude chart data...

STARLINK-1471 Visibility forecast

Observer location: undefined°, undefined°

Span
Click to sort rows by Start time (UTC) header in descending order
Start Az.
Max El. time (UTC)
Max El. Az.
Max El.
End time (UTC)
End Az.
6 mins2025-05-09 10:13:19.376Z316.169° NNW2025-05-09 10:16:19.376Z1.428° NNE39.308°2025-05-09 10:19:19.376Z114.744° SE
5 mins2025-05-10 03:07:19.376Z208.971° SW2025-05-10 03:09:19.376Z159.592° S38.685°2025-05-10 03:12:19.376Z61.193° ENE
4 mins2025-05-10 04:46:19.376Z304.584° NW2025-05-10 04:47:19.376Z328.697° NNW21.15°2025-05-10 04:50:19.376Z27.114° NE
|